Time,TemperatureF,DewpointF,PressureIn,WindDirection,WindDirectionDegrees,WindSpeedMPH,WindSpeedGustMPH,Humidity,HourlyPrecipIn,Conditions,Clouds,dailyrainin,SoftwareType,DateUTC
2013-04-08 00:00:00,43.1,35.7,30.04,North,3,0.0,3.0,75,0.00,,CLR,0.00,VWS V14.01,2013-04-08 04:00:00,
2013-04-08 00:01:00,43.0,36.0,30.04,North,3,0.0,3.0,76,0.00,,CLR,0.00,VWS V14.01,2013-04-08 04:01:00,
2013-04-08 00:06:00,42.2,35.5,30.04,North,4,2.0,2.0,77,0.00,,CLR,0.00,VWS V14.01,2013-04-08 04:06:00,
2013-04-08 00:11:00,41.6,35.3,30.04,North,6,0.0,2.0,78,0.00,,CLR,0.00,VWS V14.01,2013-04-08 04:11:00,
2013-04-08 00:17:00,41.1,35.1,30.04,North,6,0.0,2.0,79,0.00,,CLR,0.00,VWS V14.01,2013-04-08 04:17:00,
2013-04-08 00:22:00,40.8,35.4,30.05,North,6,0.0,2.0,81,0.00,,CLR,0.00,VWS V14.01,2013-04-08 04:22:00,
2013-04-08 00:27:00,40.8,35.4,30.05,North,6,0.0,2.0,81,0.00,,CLR,0.00,VWS V14.01,2013-04-08 04:27:00,
2013-04-08 00:32:00,40.7,35.3,30.05,North,6,1.0,2.0,81,0.00,,FEW032,0.00,VWS V14.01,2013-04-08 04:32:00,
2013-04-08 00:37:00,40.7,35.6,30.05,North,6,0.0,1.0,82,0.00,,FEW032,0.00,VWS V14.01,2013-04-08 04:37:00,
2013-04-08 00:42:00,40.8,35.7,30.06,North,6,0.0,1.0,82,0.00,,FEW032,0.00,VWS V14.01,2013-04-08 04:42:00,
2013-04-08 00:47:00,41.0,35.9,30.06,North,6,0.0,1.0,82,0.00,,FEW032,0.00,VWS V14.01,2013-04-08 04:47:00,
2013-04-08 00:52:00,41.2,36.1,30.06,North,6,0.0,1.0,82,0.00,,FEW032,0.00,VWS V14.01,2013-04-08 04:52:00,
2013-04-08 00:57:00,41.3,36.2,30.06,North,6,0.0,1.0,82,0.00,,FEW032,0.00,VWS V14.01,2013-04-08 04:57:00,
2013-04-08 01:02:00,41.5,36.1,30.06,North,6,0.0,1.0,81,0.00,,FEW032,0.00,VWS V14.01,2013-04-08 05:02:00,
2013-04-08 01:08:00,41.6,36.2,30.07,North,6,0.0,0.0,81,0.00,,FEW032,0.00,VWS V14.01,2013-04-08 05:08:00,
2013-04-08 01:13:00,41.7,36.3,30.07,North,1,0.0,0.0,81,0.00,,FEW032,0.00,VWS V14.01,2013-04-08 05:13:00,
2013-04-08 01:18:00,41.9,36.2,30.07,North,360,0.0,0.0,80,0.00,,FEW032,0.00,VWS V14.01,2013-04-08 05:18:00,
2013-04-08 01:23:00,41.9,35.9,30.07,NW,316,0.0,0.0,79,0.00,,FEW032,0.00,VWS V14.01,2013-04-08 05:23:00,
2013-04-08 01:28:00,41.9,35.9,30.06,NNW,337,1.0,2.0,79,0.00,,FEW032,0.00,VWS V14.01,2013-04-08 05:28:00,
2013-04-08 01:33:00,41.7,35.7,30.06,NNW,340,0.0,1.0,79,0.00,,BKN034,0.00,VWS V14.01,2013-04-08 05:33:00,
2013-04-08 01:38:00,41.6,35.6,30.07,North,1,0.0,3.0,79,0.00,,BKN034,0.00,VWS V14.01,2013-04-08 05:38:00,
2013-04-08 01:43:00,41.4,35.4,30.06,NE,39,0.0,3.0,79,0.00,,BKN034,0.00,VWS V14.01,2013-04-08 05:43:00,
2013-04-08 01:48:00,41.2,35.5,30.06,NNE,16,0.0,3.0,80,0.00,,OVC032,0.00,VWS V14.01,2013-04-08 05:48:00,
2013-04-08 01:53:00,41.1,35.4,30.07,NNW,342,0.0,3.0,80,0.00,,OVC032,0.00,VWS V14.01,2013-04-08 05:53:00,
2013-04-08 01:59:00,41.0,35.3,30.07,NNW,343,0.0,3.0,80,0.00,,OVC032,0.00,VWS V14.01,2013-04-08 05:59:00,
2013-04-08 02:04:00,40.8,34.8,30.07,WSW,252,0.0,1.0,79,0.00,,OVC032,0.00,VWS V14.01,2013-04-08 06:04:00,
2013-04-08 02:10:00,40.6,34.6,30.07,WSW,252,0.0,1.0,79,0.00,,OVC032,0.00,VWS V14.01,2013-04-08 06:10:00,
2013-04-08 02:15:00,40.1,34.4,30.07,West,266,0.0,1.0,80,0.00,,OVC032,0.00,VWS V14.01,2013-04-08 06:15:00,
2013-04-08 02:20:00,39.7,34.4,30.07,West,267,0.0,1.0,81,0.00,,OVC032,0.00,VWS V14.01,2013-04-08 06:20:00,
2013-04-08 02:25:00,39.2,33.9,30.07,West,271,0.0,1.0,81,0.00,,OVC032,0.00,VWS V14.01,2013-04-08 06:25:00,
2013-04-08 02:30:00,38.9,33.9,30.07,West,271,0.0,1.0,82,0.00,,OVC032,0.00,VWS V14.01,2013-04-08 06:30:00,
2013-04-08 02:35:00,38.6,33.6,30.07,West,271,0.0,0.0,82,0.00,,OVC032,0.00,VWS V14.01,2013-04-08 06:35:00,
2013-04-08 02:40:00,38.5,33.8,30.07,West,271,0.0,0.0,83,0.00,,OVC032,0.00,VWS V14.01,2013-04-08 06:40:00,
2013-04-08 02:45:00,38.5,34.1,30.07,West,271,0.0,0.0,84,0.00,,OVC032,0.00,VWS V14.01,2013-04-08 06:45:00,
2013-04-08 02:50:00,38.7,34.3,30.07,West,271,0.0,0.0,84,0.00,,OVC032,0.00,VWS V14.01,2013-04-08 06:50:00,
2013-04-08 02:55:00,38.9,34.5,30.07,West,271,0.0,0.0,84,0.00,,OVC032,0.00,VWS V14.01,2013-04-08 06:55:00,
2013-04-08 03:00:00,39.1,34.4,30.07,West,271,0.0,0.0,83,0.00,,OVC032,0.00,VWS V14.01,2013-04-08 07:00:00,
2013-04-08 03:05:00,39.2,34.5,30.07,West,271,0.0,0.0,83,0.00,,OVC030,0.00,VWS V14.01,2013-04-08 07:05:00,
2013-04-08 03:10:00,39.3,34.6,30.07,West,271,0.0,0.0,83,0.00,,OVC030,0.00,VWS V14.01,2013-04-08 07:10:00,
2013-04-08 03:15:00,39.3,34.6,30.07,West,271,0.0,0.0,83,0.00,,OVC030,0.00,VWS V14.01,2013-04-08 07:15:00,
2013-04-08 03:21:00,39.4,34.7,30.07,West,271,0.0,0.0,83,0.00,,OVC030,0.00,VWS V14.01,2013-04-08 07:21:00,
2013-04-08 03:26:00,39.5,34.8,30.08,West,271,0.0,0.0,83,0.00,,OVC030,0.00,VWS V14.01,2013-04-08 07:26:00,
2013-04-08 03:31:00,39.6,34.9,30.08,West,271,0.0,0.0,83,0.00,,OVC030,0.00,VWS V14.01,2013-04-08 07:31:00,
2013-04-08 03:36:00,39.5,35.1,30.08,West,278,0.0,0.0,84,0.00,,OVC030,0.00,VWS V14.01,2013-04-08 07:36:00,
2013-04-08 03:42:00,39.7,35.0,30.08,WNW,294,0.0,2.0,83,0.00,,OVC030,0.00,VWS V14.01,2013-04-08 07:42:00,
2013-04-08 03:47:00,39.6,34.6,30.08,WNW,294,0.0,2.0,82,0.00,,OVC030,0.00,VWS V14.01,2013-04-08 07:47:00,
2013-04-08 03:52:00,39.6,34.6,30.08,WNW,294,1.0,2.0,82,0.00,,OVC030,0.00,VWS V14.01,2013-04-08 07:52:00,
2013-04-08 03:57:00,39.3,34.3,30.08,NW,312,0.0,2.0,82,0.00,,OVC030,0.00,VWS V14.01,2013-04-08 07:57:00,
2013-04-08 04:02:00,39.2,34.5,30.08,North,5,0.0,2.0,83,0.00,,OVC030,0.00,VWS V14.01,2013-04-08 08:02:00,
2013-04-08 04:07:00,39.2,34.8,30.08,North,5,0.0,0.0,84,0.00,,OVC030,0.00,VWS V14.01,2013-04-08 08:07:00,
2013-04-08 04:13:00,39.2,34.8,30.09,North,5,0.0,0.0,84,0.00,,OVC030,0.00,VWS V14.01,2013-04-08 08:13:00,
2013-04-08 04:18:00,39.2,35.1,30.09,North,5,0.0,0.0,85,0.00,,OVC030,0.00,VWS V14.01,2013-04-08 08:18:00,
2013-04-08 04:23:00,39.2,35.1,30.08,North,5,0.0,0.0,85,0.00,,OVC030,0.00,VWS V14.01,2013-04-08 08:23:00,
2013-04-08 04:28:00,39.3,35.2,30.08,North,5,0.0,0.0,85,0.00,,OVC030,0.00,VWS V14.01,2013-04-08 08:28:00,
2013-04-08 04:33:00,39.3,35.2,30.09,North,5,0.0,0.0,85,0.00,,OVC030,0.00,VWS V14.01,2013-04-08 08:33:00,
2013-04-08 04:38:00,39.3,35.2,30.09,North,5,0.0,0.0,85,0.00,,OVC030,0.00,VWS V14.01,2013-04-08 08:38:00,
2013-04-08 04:43:00,39.3,35.2,30.09,North,5,0.0,0.0,85,0.00,,OVC030,0.00,VWS V14.01,2013-04-08 08:43:00,
2013-04-08 04:48:00,39.4,35.3,30.09,North,4,0.0,0.0,85,0.00,,OVC028,0.00,VWS V14.01,2013-04-08 08:48:00,
2013-04-08 04:54:00,39.5,35.1,30.09,North,4,0.0,0.0,84,0.00,,OVC028,0.00,VWS V14.01,2013-04-08 08:54:00,
2013-04-08 04:59:00,39.6,34.9,30.09,North,4,0.0,0.0,83,0.00,,OVC028,0.00,VWS V14.01,2013-04-08 08:59:00,
2013-04-08 05:05:00,39.7,34.7,30.09,North,4,0.0,0.0,82,0.00,,OVC028,0.00,VWS V14.01,2013-04-08 09:05:00,
2013-04-08 05:10:00,39.7,35.0,30.09,North,4,0.0,0.0,83,0.00,,OVC028,0.00,VWS V14.01,2013-04-08 09:10:00,
2013-04-08 05:15:00,39.7,35.0,30.10,North,5,0.0,0.0,83,0.00,,OVC028,0.00,VWS V14.01,2013-04-08 09:15:00,
2013-04-08 05:20:00,39.6,34.9,30.10,North,4,0.0,0.0,83,0.00,,OVC028,0.00,VWS V14.01,2013-04-08 09:20:00,
2013-04-08 05:25:00,39.7,35.0,30.09,North,5,0.0,0.0,83,0.00,,OVC028,0.00,VWS V14.01,2013-04-08 09:25:00,
2013-04-08 05:30:00,39.6,34.9,30.10,North,4,0.0,0.0,83,0.00,,OVC028,0.00,VWS V14.01,2013-04-08 09:30:00,
2013-04-08 05:35:00,39.6,35.2,30.10,North,5,0.0,0.0,84,0.00,,OVC028,0.00,VWS V14.01,2013-04-08 09:35:00,
2013-04-08 05:40:00,39.6,35.2,30.10,North,5,0.0,0.0,84,0.00,,OVC028,0.00,VWS V14.01,2013-04-08 09:40:00,
2013-04-08 05:45:00,39.5,35.1,30.10,North,5,0.0,0.0,84,0.00,,OVC025,0.00,VWS V14.01,2013-04-08 09:45:00,
2013-04-08 05:50:00,39.5,35.1,30.10,North,4,0.0,0.0,84,0.00,,OVC025,0.00,VWS V14.01,2013-04-08 09:50:00,
2013-04-08 05:55:00,39.5,35.1,30.10,North,5,0.0,0.0,84,0.00,,OVC025,0.00,VWS V14.01,2013-04-08 09:55:00,
2013-04-08 06:00:00,39.4,35.3,30.10,North,5,0.0,0.0,85,0.00,,OVC025,0.00,VWS V14.01,2013-04-08 10:00:00,
2013-04-08 06:05:00,39.4,35.3,30.10,North,5,0.0,0.0,85,0.00,,OVC025,0.00,VWS V14.01,2013-04-08 10:05:00,
2013-04-08 06:10:00,39.4,35.3,30.10,North,4,0.0,0.0,85,0.00,,OVC025,0.00,VWS V14.01,2013-04-08 10:10:00,
2013-04-08 06:16:00,39.3,34.9,30.10,North,5,0.0,0.0,84,0.00,,OVC025,0.00,VWS V14.01,2013-04-08 10:16:00,
2013-04-08 06:21:00,39.3,34.9,30.10,North,5,0.0,0.0,84,0.00,,OVC025,0.00,VWS V14.01,2013-04-08 10:21:00,
2013-04-08 06:27:00,39.4,35.0,30.10,North,5,0.0,0.0,84,0.00,,OVC025,0.00,VWS V14.01,2013-04-08 10:27:00,
2013-04-08 06:32:00,39.4,35.0,30.11,North,4,0.0,0.0,84,0.00,,OVC025,0.00,VWS V14.01,2013-04-08 10:32:00,
2013-04-08 06:37:00,39.5,35.4,30.11,North,4,0.0,0.0,85,0.00,,OVC025,0.00,VWS V14.01,2013-04-08 10:37:00,
2013-04-08 06:42:00,39.4,35.3,30.11,North,4,0.0,0.0,85,0.00,,OVC025,0.00,VWS V14.01,2013-04-08 10:42:00,
2013-04-08 06:47:00,39.4,35.3,30.11,North,5,0.0,0.0,85,0.00,,OVC027,0.00,VWS V14.01,2013-04-08 10:47:00,
2013-04-08 06:52:00,39.3,35.2,30.11,North,4,0.0,0.0,85,0.00,,OVC027,0.00,VWS V14.01,2013-04-08 10:52:00,
2013-04-08 06:58:00,39.3,35.2,30.11,North,5,0.0,0.0,85,0.00,,OVC027,0.00,VWS V14.01,2013-04-08 10:58:00,
2013-04-08 07:03:00,39.3,35.2,30.12,North,9,0.0,0.0,85,0.00,,OVC027,0.00,VWS V14.01,2013-04-08 11:03:00,
2013-04-08 07:08:00,39.3,35.2,30.12,North,9,0.0,0.0,85,0.00,,OVC027,0.00,VWS V14.01,2013-04-08 11:08:00,
2013-04-08 07:13:00,39.4,35.3,30.11,North,9,0.0,0.0,85,0.00,,OVC027,0.00,VWS V14.01,2013-04-08 11:13:00,
2013-04-08 07:18:00,39.5,35.4,30.11,North,9,0.0,0.0,85,0.00,,OVC027,0.00,VWS V14.01,2013-04-08 11:18:00,
2013-04-08 07:25:00,39.6,35.5,30.12,North,9,0.0,0.0,85,0.00,,OVC027,0.00,VWS V14.01,2013-04-08 11:25:00,
2013-04-08 07:30:00,39.7,35.3,30.12,North,9,0.0,0.0,84,0.00,,OVC027,0.00,VWS V14.01,2013-04-08 11:30:00,
2013-04-08 07:36:00,39.9,35.5,30.12,North,9,0.0,0.0,84,0.00,,OVC029,0.00,VWS V14.01,2013-04-08 11:36:00,
2013-04-08 07:41:00,40.0,35.3,30.13,North,9,0.0,0.0,83,0.00,,OVC029,0.00,VWS V14.01,2013-04-08 11:41:00,
2013-04-08 07:46:00,40.2,35.2,30.13,North,9,0.0,0.0,82,0.00,,OVC029,0.00,VWS V14.01,2013-04-08 11:46:00,
2013-04-08 07:51:00,40.4,35.3,30.13,North,9,0.0,0.0,82,0.00,,OVC029,0.00,VWS V14.01,2013-04-08 11:51:00,
2013-04-08 07:57:00,40.6,35.5,30.14,North,6,0.0,0.0,82,0.00,,OVC029,0.00,VWS V14.01,2013-04-08 11:57:00,
2013-04-08 08:02:00,40.7,35.6,30.14,North,358,0.0,0.0,82,0.00,,OVC029,0.00,VWS V14.01,2013-04-08 12:02:00,
2013-04-08 08:07:00,40.8,35.1,30.14,SW,228,0.0,0.0,80,0.00,,OVC029,0.00,VWS V14.01,2013-04-08 12:07:00,
2013-04-08 08:12:00,40.9,35.5,30.14,SW,228,0.0,0.0,81,0.00,,OVC029,0.00,VWS V14.01,2013-04-08 12:12:00,
2013-04-08 08:17:00,41.2,35.5,30.14,SSE,152,0.0,0.0,80,0.00,,OVC029,0.00,VWS V14.01,2013-04-08 12:17:00,
2013-04-08 08:22:00,41.5,35.8,30.14,SSE,152,0.0,0.0,80,0.00,,OVC029,0.00,VWS V14.01,2013-04-08 12:22:00,
2013-04-08 08:27:00,41.6,35.9,30.14,ESE,121,0.0,0.0,80,0.00,,OVC029,0.00,VWS V14.01,2013-04-08 12:27:00,
2013-04-08 08:32:00,41.8,35.8,30.14,SE,125,0.0,0.0,79,0.00,,OVC029,0.00,VWS V14.01,2013-04-08 12:32:00,
2013-04-08 08:37:00,42.0,35.7,30.14,SE,145,0.0,0.0,78,0.00,,OVC029,0.00,VWS V14.01,2013-04-08 12:37:00,
2013-04-08 08:42:00,42.0,35.0,30.14,ESE,122,0.0,0.0,76,0.00,,OVC029,0.00,VWS V14.01,2013-04-08 12:42:00,
2013-04-08 08:48:00,42.3,35.0,30.14,SE,132,0.0,0.0,75,0.00,,OVC029,0.00,VWS V14.01,2013-04-08 12:48:00,
2013-04-08 08:53:00,42.5,34.8,30.14,SE,129,0.0,0.0,74,0.00,,OVC029,0.00,VWS V14.01,2013-04-08 12:53:00,
2013-04-08 08:58:00,42.5,34.8,30.13,ESE,121,0.0,0.0,74,0.00,,OVC029,0.00,VWS V14.01,2013-04-08 12:58:00,
2013-04-08 09:03:00,42.7,35.0,30.13,East,98,0.0,0.0,74,0.00,,OVC029,0.00,VWS V14.01,2013-04-08 13:03:00,
2013-04-08 09:08:00,43.1,35.4,30.13,SSE,153,0.0,0.0,74,0.00,,OVC029,0.00,VWS V14.01,2013-04-08 13:08:00,
2013-04-08 09:13:00,43.4,35.3,30.13,East,91,0.0,0.0,73,0.00,,OVC029,0.00,VWS V14.01,2013-04-08 13:13:00,
2013-04-08 09:18:00,43.7,35.6,30.13,SE,134,0.0,0.0,73,0.00,,OVC029,0.00,VWS V14.01,2013-04-08 13:18:00,
2013-04-08 09:23:00,44.0,35.9,30.13,SE,143,1.0,2.0,73,0.00,,OVC029,0.00,VWS V14.01,2013-04-08 13:23:00,
2013-04-08 09:29:00,44.2,35.4,30.14,SW,236,2.0,2.0,71,0.00,,OVC029,0.00,VWS V14.01,2013-04-08 13:29:00,
2013-04-08 09:34:00,44.1,36.0,30.14,SE,129,0.0,2.0,73,0.00,,OVC027,0.00,VWS V14.01,2013-04-08 13:34:00,
2013-04-08 09:39:00,44.5,36.0,30.14,South,187,0.0,2.0,72,0.00,,OVC027,0.00,VWS V14.01,2013-04-08 13:39:00,
2013-04-08 09:44:00,44.6,35.4,30.13,SW,229,1.0,3.0,70,0.00,,OVC027,0.00,VWS V14.01,2013-04-08 13:44:00,
2013-04-08 09:49:00,44.9,36.4,30.13,South,174,1.0,3.0,72,0.00,,OVC027,0.00,VWS V14.01,2013-04-08 13:49:00,
2013-04-08 09:54:00,45.5,36.3,30.13,ESE,108,1.0,4.0,70,0.00,,OVC027,0.00,VWS V14.01,2013-04-08 13:54:00,
2013-04-08 09:59:00,46.0,37.1,30.13,East,81,3.0,4.0,71,0.00,,OVC027,0.00,VWS V14.01,2013-04-08 13:59:00,
2013-04-08 10:04:00,46.7,37.8,30.13,SSE,166,0.0,2.0,71,0.00,,OVC027,0.00,VWS V14.01,2013-04-08 14:04:00,
2013-04-08 10:09:00,47.6,37.2,30.13,SSW,205,3.0,4.0,67,0.00,,OVC027,0.00,VWS V14.01,2013-04-08 14:09:00,
2013-04-08 10:14:00,47.1,36.3,30.12,South,179,0.0,6.0,66,0.00,,OVC027,0.00,VWS V14.01,2013-04-08 14:14:00,
2013-04-08 10:20:00,47.5,37.5,30.12,SSW,197,1.0,6.0,68,0.00,,OVC027,0.00,VWS V14.01,2013-04-08 14:20:00,
2013-04-08 10:25:00,47.6,36.8,30.12,SE,137,1.0,6.0,66,0.00,,OVC027,0.00,VWS V14.01,2013-04-08 14:25:00,
2013-04-08 10:30:00,48.0,37.6,30.12,SE,124,2.0,6.0,67,0.00,,OVC027,0.00,VWS V14.01,2013-04-08 14:30:00,
2013-04-08 10:35:00,48.3,37.5,30.12,SW,236,3.0,3.0,66,0.00,,SCT027,0.00,VWS V14.01,2013-04-08 14:35:00,
2013-04-08 10:40:00,48.8,38.7,30.12,SSW,195,2.0,4.0,68,0.00,,SCT027,0.00,VWS V14.01,2013-04-08 14:40:00,
2013-04-08 10:45:00,49.3,37.7,30.12,SE,135,3.0,5.0,64,0.00,,SCT027,0.00,VWS V14.01,2013-04-08 14:45:00,
2013-04-08 10:50:00,49.6,38.3,30.12,SSE,150,3.0,6.0,65,0.00,,SCT027,0.00,VWS V14.01,2013-04-08 14:50:00,
2013-04-08 10:55:00,49.7,38.0,30.12,SSW,204,2.0,6.0,64,0.00,,SCT027,0.00,VWS V14.01,2013-04-08 14:55:00,
2013-04-08 11:00:00,50.0,37.5,30.11,SE,142,0.0,6.0,62,0.00,,SCT027,0.00,VWS V14.01,2013-04-08 15:00:00,
2013-04-08 11:05:00,50.4,38.7,30.11,SSE,159,2.0,5.0,64,0.00,,SCT027,0.00,VWS V14.01,2013-04-08 15:05:00,
2013-04-08 11:11:00,51.0,38.5,30.11,SE,142,2.0,6.0,62,0.00,,SCT027,0.00,VWS V14.01,2013-04-08 15:11:00,
2013-04-08 11:16:00,51.3,38.3,30.11,ESE,113,4.0,7.0,61,0.00,,SCT027,0.00,VWS V14.01,2013-04-08 15:16:00,
2013-04-08 11:21:00,51.5,38.5,30.11,SSW,208,2.0,7.0,61,0.00,,SCT027,0.00,VWS V14.01,2013-04-08 15:21:00,
2013-04-08 11:27:00,51.3,38.3,30.11,ESE,107,2.0,7.0,61,0.00,,SCT027,0.00,VWS V14.01,2013-04-08 15:27:00,
2013-04-08 11:32:00,51.6,39.0,30.10,SSW,208,3.0,7.0,62,0.00,,CLR,0.00,VWS V14.01,2013-04-08 15:32:00,
2013-04-08 11:37:00,52.2,38.8,30.10,ENE,66,2.0,6.0,60,0.00,,CLR,0.00,VWS V14.01,2013-04-08 15:37:00,
2013-04-08 11:42:00,52.7,38.3,30.10,SSE,155,3.0,6.0,58,0.00,,CLR,0.00,VWS V14.01,2013-04-08 15:42:00,
2013-04-08 11:47:00,52.9,38.5,30.10,WSW,239,4.0,6.0,58,0.00,,CLR,0.00,VWS V14.01,2013-04-08 15:47:00,
2013-04-08 11:52:00,52.6,38.3,30.10,SSE,148,2.0,7.0,58,0.00,,CLR,0.00,VWS V14.01,2013-04-08 15:52:00,
2013-04-08 11:57:00,52.9,39.0,30.09,SE,142,3.0,7.0,59,0.00,,CLR,0.00,VWS V14.01,2013-04-08 15:57:00,
2013-04-08 12:02:00,53.1,38.7,30.09,East,101,6.0,7.0,58,0.00,,CLR,0.00,VWS V14.01,2013-04-08 16:02:00,
2013-04-08 12:07:00,52.3,38.0,30.09,ENE,64,3.0,6.0,58,0.00,,CLR,0.00,VWS V14.01,2013-04-08 16:07:00,
2013-04-08 12:13:00,52.8,39.3,30.09,ENE,62,5.0,8.0,60,0.00,,CLR,0.00,VWS V14.01,2013-04-08 16:13:00,
2013-04-08 12:18:00,52.9,39.0,30.08,SSE,160,1.0,8.0,59,0.00,,CLR,0.00,VWS V14.01,2013-04-08 16:18:00,
2013-04-08 12:23:00,52.7,38.3,30.09,South,189,0.0,8.0,58,0.00,,CLR,0.00,VWS V14.01,2013-04-08 16:23:00,
2013-04-08 12:28:00,52.6,39.1,30.09,SSE,153,2.0,8.0,60,0.00,,CLR,0.00,VWS V14.01,2013-04-08 16:28:00,
2013-04-08 12:33:00,53.1,39.2,30.08,South,179,4.0,4.0,59,0.00,,CLR,0.00,VWS V14.01,2013-04-08 16:33:00,
2013-04-08 12:38:00,53.7,39.3,30.08,ESE,121,2.0,6.0,58,0.00,,CLR,0.00,VWS V14.01,2013-04-08 16:38:00,
2013-04-08 12:43:00,54.1,39.2,30.08,ESE,113,3.0,8.0,57,0.00,,CLR,0.00,VWS V14.01,2013-04-08 16:43:00,
2013-04-08 12:48:00,54.7,39.8,30.08,West,267,4.0,8.0,57,0.00,,CLR,0.00,VWS V14.01,2013-04-08 16:48:00,
2013-04-08 12:54:00,55.0,40.1,30.07,South,191,3.0,10.0,57,0.00,,CLR,0.00,VWS V14.01,2013-04-08 16:54:00,
2013-04-08 12:59:00,55.1,40.2,30.07,SW,220,4.0,10.0,57,0.00,,CLR,0.00,VWS V14.01,2013-04-08 16:59:00,
2013-04-08 13:04:00,55.4,41.3,30.07,ESE,118,4.0,6.0,59,0.00,,CLR,0.00,VWS V14.01,2013-04-08 17:04:00,
2013-04-08 13:09:00,55.9,40.9,30.06,East,99,3.0,11.0,57,0.00,,CLR,0.00,VWS V14.01,2013-04-08 17:09:00,
2013-04-08 13:16:00,55.9,41.3,30.06,SSE,160,2.0,11.0,58,0.00,,CLR,0.00,VWS V14.01,2013-04-08 17:16:00,
2013-04-08 13:21:00,56.0,40.5,30.06,SSW,200,3.0,11.0,56,0.00,,CLR,0.00,VWS V14.01,2013-04-08 17:21:00,
2013-04-08 13:26:00,56.3,40.8,30.06,SE,132,2.0,11.0,56,0.00,,CLR,0.00,VWS V14.01,2013-04-08 17:26:00,
2013-04-08 13:32:00,56.3,41.3,30.05,SW,220,3.0,11.0,57,0.00,,CLR,0.00,VWS V14.01,2013-04-08 17:32:00,
2013-04-08 13:37:00,56.2,40.7,30.05,NNE,20,4.0,6.0,56,0.00,,CLR,0.00,VWS V14.01,2013-04-08 17:37:00,
2013-04-08 13:42:00,56.7,40.3,30.05,ENE,73,5.0,8.0,54,0.00,,CLR,0.00,VWS V14.01,2013-04-08 17:42:00,
2013-04-08 13:47:00,57.0,41.5,30.04,ESE,115,3.0,9.0,56,0.00,,CLR,0.00,VWS V14.01,2013-04-08 17:47:00,
2013-04-08 13:52:00,57.4,40.9,30.04,SSE,150,6.0,9.0,54,0.00,,CLR,0.00,VWS V14.01,2013-04-08 17:52:00,
2013-04-08 13:57:00,57.5,40.5,30.04,SSW,194,2.0,9.0,53,0.00,,CLR,0.00,VWS V14.01,2013-04-08 17:57:00,
2013-04-08 14:02:00,57.5,41.0,30.03,ESE,117,3.0,9.0,54,0.00,,CLR,0.00,VWS V14.01,2013-04-08 18:02:00,
2013-04-08 14:08:00,57.9,40.9,30.03,NNE,20,2.0,10.0,53,0.00,,CLR,0.00,VWS V14.01,2013-04-08 18:08:00,
2013-04-08 14:13:00,58.2,41.2,30.02,South,173,6.0,10.0,53,0.00,,CLR,0.00,VWS V14.01,2013-04-08 18:13:00,
2013-04-08 14:18:00,58.6,41.0,30.02,SSW,193,5.0,10.0,52,0.00,,CLR,0.00,VWS V14.01,2013-04-08 18:18:00,
2013-04-08 14:23:00,58.9,40.8,30.02,ESE,118,7.0,10.0,51,0.00,,CLR,0.00,VWS V14.01,2013-04-08 18:23:00,
2013-04-08 14:28:00,59.0,40.9,30.02,ESE,105,5.0,10.0,51,0.00,,CLR,0.00,VWS V14.01,2013-04-08 18:28:00,
2013-04-08 14:33:00,59.1,41.5,30.02,ESE,114,8.0,9.0,52,0.00,,CLR,0.00,VWS V14.01,2013-04-08 18:33:00,
2013-04-08 14:38:00,59.2,41.1,30.01,SSE,153,4.0,9.0,51,0.00,,CLR,0.00,VWS V14.01,2013-04-08 18:38:00,
2013-04-08 14:43:00,59.3,41.2,30.01,SSW,197,4.0,9.0,51,0.00,,CLR,0.00,VWS V14.01,2013-04-08 18:43:00,
2013-04-08 14:48:00,59.3,41.2,30.01,South,173,5.0,9.0,51,0.00,,CLR,0.00,VWS V14.01,2013-04-08 18:48:00,
2013-04-08 14:54:00,58.9,41.3,30.01,SSE,149,8.0,9.0,52,0.00,,CLR,0.00,VWS V14.01,2013-04-08 18:54:00,
2013-04-08 14:59:00,58.4,40.9,30.00,SSW,207,5.0,9.0,52,0.00,,CLR,0.00,VWS V14.01,2013-04-08 18:59:00,
2013-04-08 15:04:00,58.1,41.1,30.00,NE,46,3.0,5.0,53,0.00,,CLR,0.00,VWS V14.01,2013-04-08 19:04:00,
2013-04-08 15:09:00,57.9,40.4,30.00,SW,226,2.0,9.0,52,0.00,,CLR,0.00,VWS V14.01,2013-04-08 19:09:00,
2013-04-08 15:14:00,58.2,41.7,29.99,SSW,194,3.0,9.0,54,0.00,,CLR,0.00,VWS V14.01,2013-04-08 19:14:00,
2013-04-08 15:19:00,58.5,41.0,29.99,SE,135,3.0,9.0,52,0.00,,CLR,0.00,VWS V14.01,2013-04-08 19:19:00,
2013-04-08 15:25:00,58.5,41.0,29.99,East,93,5.0,10.0,52,0.00,,CLR,0.00,VWS V14.01,2013-04-08 19:25:00,
2013-04-08 15:30:00,58.7,41.6,29.99,ESE,115,2.0,10.0,53,0.00,,CLR,0.00,VWS V14.01,2013-04-08 19:30:00,
2013-04-08 15:35:00,58.7,41.6,29.99,WSW,251,2.0,7.0,53,0.00,,CLR,0.00,VWS V14.01,2013-04-08 19:35:00,
2013-04-08 15:40:00,58.4,41.3,29.98,ESE,113,2.0,7.0,53,0.00,,CLR,0.00,VWS V14.01,2013-04-08 19:40:00,
2013-04-08 15:45:00,58.4,40.9,29.97,SW,222,4.0,7.0,52,0.00,,CLR,0.00,VWS V14.01,2013-04-08 19:45:00,
2013-04-08 15:51:00,58.3,41.3,29.97,SE,136,4.0,7.0,53,0.00,,CLR,0.00,VWS V14.01,2013-04-08 19:51:00,
2013-04-08 15:56:00,58.1,41.1,29.96,ESE,122,2.0,8.0,53,0.00,,CLR,0.00,VWS V14.01,2013-04-08 19:56:00,
2013-04-08 16:01:00,57.9,41.4,29.96,SSE,158,2.0,8.0,54,0.00,,CLR,0.00,VWS V14.01,2013-04-08 20:01:00,
2013-04-08 16:07:00,57.6,40.6,29.96,SE,124,3.0,6.0,53,0.00,,OVC028,0.00,VWS V14.01,2013-04-08 20:07:00,
2013-04-08 16:12:00,57.5,41.5,29.96,SE,133,3.0,6.0,55,0.00,,OVC028,0.00,VWS V14.01,2013-04-08 20:12:00,
2013-04-08 16:17:00,57.4,40.9,29.96,South,170,5.0,9.0,54,0.00,,OVC028,0.00,VWS V14.01,2013-04-08 20:17:00,
2013-04-08 16:22:00,57.3,40.8,29.96,ESE,115,8.0,9.0,54,0.00,,OVC028,0.00,VWS V14.01,2013-04-08 20:22:00,
2013-04-08 16:27:00,57.3,41.3,29.95,ESE,121,4.0,9.0,55,0.00,,OVC028,0.00,VWS V14.01,2013-04-08 20:27:00,
2013-04-08 16:32:00,57.2,41.2,29.94,ESE,118,1.0,9.0,55,0.00,,OVC028,0.00,VWS V14.01,2013-04-08 20:32:00,
2013-04-08 16:37:00,57.2,40.7,29.94,ESE,108,3.0,6.0,54,0.00,,CLR,0.00,VWS V14.01,2013-04-08 20:37:00,
2013-04-08 16:43:00,57.2,41.2,29.94,SE,142,1.0,6.0,55,0.00,,CLR,0.00,VWS V14.01,2013-04-08 20:43:00,
2013-04-08 16:48:00,57.2,41.7,29.94,SSE,158,1.0,8.0,56,0.00,,CLR,0.00,VWS V14.01,2013-04-08 20:48:00,
2013-04-08 16:53:00,57.1,41.1,29.94,SSE,151,4.0,8.0,55,0.00,,CLR,0.00,VWS V14.01,2013-04-08 20:53:00,
2013-04-08 16:58:00,57.1,41.1,29.94,SE,136,2.0,8.0,55,0.00,,CLR,0.00,VWS V14.01,2013-04-08 20:58:00,
2013-04-08 17:03:00,57.0,40.5,29.94,SE,134,3.0,4.0,54,0.00,,CLR,0.00,VWS V14.01,2013-04-08 21:03:00,
2013-04-08 17:08:00,57.1,40.6,29.94,NE,56,2.0,7.0,54,0.00,,CLR,0.00,VWS V14.01,2013-04-08 21:08:00,
2013-04-08 17:13:00,57.2,41.2,29.94,South,188,3.0,7.0,55,0.00,,CLR,0.00,VWS V14.01,2013-04-08 21:13:00,
2013-04-08 17:19:00,57.2,41.2,29.94,East,80,2.0,7.0,55,0.00,,CLR,0.00,VWS V14.01,2013-04-08 21:19:00,
2013-04-08 17:24:00,57.1,41.1,29.94,SSE,150,1.0,7.0,55,0.00,,CLR,0.00,VWS V14.01,2013-04-08 21:24:00,
2013-04-08 17:29:00,57.0,41.0,29.94,ENE,78,1.0,7.0,55,0.00,,CLR,0.00,VWS V14.01,2013-04-08 21:29:00,
2013-04-08 17:34:00,57.1,41.1,29.94,SE,135,3.0,4.0,55,0.00,,OVC029,0.00,VWS V14.01,2013-04-08 21:34:00,
2013-04-08 17:39:00,57.4,42.3,29.94,ESE,113,1.0,4.0,57,0.00,,OVC029,0.00,VWS V14.01,2013-04-08 21:39:00,
2013-04-08 17:45:00,57.4,42.3,29.94,ESE,123,2.0,4.0,57,0.00,,OVC029,0.00,VWS V14.01,2013-04-08 21:45:00,
2013-04-08 17:50:00,57.4,41.8,29.94,ESE,120,0.0,4.0,56,0.00,,OVC029,0.00,VWS V14.01,2013-04-08 21:50:00,
2013-04-08 17:55:00,57.4,42.3,29.93,East,85,1.0,4.0,57,0.00,,OVC029,0.00,VWS V14.01,2013-04-08 21:55:00,
2013-04-08 18:00:00,57.4,43.2,29.93,SW,215,1.0,4.0,59,0.00,,OVC029,0.00,VWS V14.01,2013-04-08 22:00:00,
2013-04-08 18:05:00,57.4,42.8,29.93,SE,133,0.0,1.0,58,0.00,,CLR,0.00,VWS V14.01,2013-04-08 22:05:00,
2013-04-08 18:10:00,57.4,43.2,29.93,ENE,77,0.0,1.0,59,0.00,,CLR,0.00,VWS V14.01,2013-04-08 22:10:00,
2013-04-08 18:15:00,57.3,41.8,29.92,ESE,121,2.0,3.0,56,0.00,,CLR,0.00,VWS V14.01,2013-04-08 22:15:00,
2013-04-08 18:20:00,57.3,42.7,29.92,SE,138,1.0,3.0,58,0.00,,CLR,0.00,VWS V14.01,2013-04-08 22:20:00,
2013-04-08 18:25:00,57.2,43.0,29.92,SE,127,1.0,3.0,59,0.00,,CLR,0.00,VWS V14.01,2013-04-08 22:25:00,
2013-04-08 18:30:00,57.2,43.0,29.92,ESE,110,3.0,3.0,59,0.00,,CLR,0.00,VWS V14.01,2013-04-08 22:30:00,
2013-04-08 18:36:00,57.2,43.0,29.92,East,83,0.0,2.0,59,0.00,,OVC100,0.00,VWS V14.01,2013-04-08 22:36:00,
2013-04-08 18:41:00,57.0,42.8,29.91,SE,134,0.0,3.0,59,0.00,,OVC100,0.00,VWS V14.01,2013-04-08 22:41:00,
2013-04-08 18:47:00,57.0,42.4,29.91,SE,136,1.0,3.0,58,0.00,,OVC100,0.00,VWS V14.01,2013-04-08 22:47:00,
2013-04-08 18:52:00,57.0,42.8,29.91,ESE,115,0.0,3.0,59,0.00,,OVC100,0.00,VWS V14.01,2013-04-08 22:52:00,
2013-04-08 18:57:00,56.9,42.7,29.90,SE,146,1.0,3.0,59,0.00,,OVC100,0.00,VWS V14.01,2013-04-08 22:57:00,
2013-04-08 19:02:00,56.8,42.2,29.88,South,169,1.0,4.0,58,0.00,,OVC100,0.00,VWS V14.01,2013-04-08 23:02:00,
2013-04-08 19:08:00,56.8,42.2,29.87,ESE,117,3.0,6.0,58,0.00,,OVC100,0.00,VWS V14.01,2013-04-08 23:08:00,
2013-04-08 19:13:00,56.9,41.8,29.88,SW,214,2.0,8.0,57,0.00,,OVC100,0.00,VWS V14.01,2013-04-08 23:13:00,
2013-04-08 19:18:00,56.9,41.8,29.88,SE,136,3.0,8.0,57,0.00,,OVC100,0.00,VWS V14.01,2013-04-08 23:18:00,
2013-04-08 19:23:00,56.9,41.8,29.88,SE,138,1.0,8.0,57,0.00,,OVC100,0.00,VWS V14.01,2013-04-08 23:23:00,
2013-04-08 19:28:00,56.8,42.2,29.87,SSW,197,2.0,8.0,58,0.00,,OVC100,0.00,VWS V14.01,2013-04-08 23:28:00,
2013-04-08 19:33:00,56.7,42.1,29.87,South,173,2.0,2.0,58,0.00,,-RA,0.00,VWS V14.01,2013-04-08 23:33:00,
2013-04-08 19:38:00,56.6,42.0,29.87,SSE,163,1.0,3.0,58,0.00,,-RA,0.00,VWS V14.01,2013-04-08 23:38:00,
2013-04-08 19:44:00,56.5,42.4,29.87,ESE,103,1.0,3.0,59,0.00,,-RA,0.00,VWS V14.01,2013-04-08 23:44:00,
2013-04-08 19:49:00,56.5,41.9,29.86,SE,124,2.0,3.0,58,0.00,,-RA,0.00,VWS V14.01,2013-04-08 23:49:00,
2013-04-08 19:54:00,56.6,42.5,29.86,East,86,1.0,3.0,59,0.00,,-RA,0.00,VWS V14.01,2013-04-08 23:54:00,
2013-04-08 19:59:00,56.5,43.2,29.87,North,360,2.0,3.0,61,0.00,,-RA,0.00,VWS V14.01,2013-04-08 23:59:00,
2013-04-08 20:04:00,55.9,43.5,29.87,NNW,346,2.0,3.0,63,0.00,,-RA,0.00,VWS V14.01,2013-04-09 00:04:00,
2013-04-08 20:09:00,55.4,43.4,29.87,North,350,2.0,3.0,64,0.00,,-RA,0.00,VWS V14.01,2013-04-09 00:09:00,
2013-04-08 20:14:00,55.2,43.2,29.87,North,5,3.0,3.0,64,0.00,,-RA,0.00,VWS V14.01,2013-04-09 00:14:00,
2013-04-08 20:19:00,55.3,42.9,29.87,North,1,1.0,3.0,63,0.00,,-RA,0.00,VWS V14.01,2013-04-09 00:19:00,
2013-04-08 20:25:00,55.5,42.3,29.88,North,357,1.0,3.0,61,0.00,,-RA,0.00,VWS V14.01,2013-04-09 00:25:00,
2013-04-08 20:30:00,55.5,42.7,29.87,NNW,330,3.0,7.0,62,0.00,,-RA,0.00,VWS V14.01,2013-04-09 00:30:00,
2013-04-08 20:35:00,54.9,43.0,29.87,ENE,71,2.0,4.0,64,0.00,,-RA,0.00,VWS V14.01,2013-04-09 00:35:00,
2013-04-08 20:40:00,54.6,43.1,29.87,NW,314,2.0,4.0,65,0.00,,-RA,0.00,VWS V14.01,2013-04-09 00:40:00,
2013-04-08 20:45:00,54.7,43.2,29.88,NNW,338,3.0,4.0,65,0.00,,-RA,0.00,VWS V14.01,2013-04-09 00:45:00,
2013-04-08 20:50:00,54.5,43.8,29.87,North,354,2.0,4.0,67,0.00,,-RA,0.00,VWS V14.01,2013-04-09 00:50:00,
2013-04-08 20:55:00,54.3,43.2,29.86,East,99,0.0,4.0,66,0.00,,-RA,0.00,VWS V14.01,2013-04-09 00:55:00,
2013-04-08 21:00:00,54.1,43.4,29.86,ENE,73,2.0,5.0,67,0.00,,-RA,0.00,VWS V14.01,2013-04-09 01:00:00,
2013-04-08 21:05:00,53.5,43.6,29.86,NW,319,3.0,3.0,69,0.00,,-RA,0.00,VWS V14.01,2013-04-09 01:05:00,
2013-04-08 21:11:00,53.2,43.3,29.86,SW,236,0.0,3.0,69,0.00,,-RA,0.00,VWS V14.01,2013-04-09 01:11:00,
2013-04-08 21:16:00,53.1,43.2,29.86,ENE,75,2.0,3.0,69,0.00,,-RA,0.00,VWS V14.01,2013-04-09 01:16:00,
2013-04-08 21:21:00,53.0,43.5,29.87,NE,41,1.0,3.0,70,0.00,,-RA,0.00,VWS V14.01,2013-04-09 01:21:00,
2013-04-08 21:27:00,52.9,43.4,29.87,SE,134,2.0,3.0,70,0.00,,-RA,0.00,VWS V14.01,2013-04-09 01:27:00,
2013-04-08 21:32:00,52.8,43.7,29.86,SSW,212,0.0,5.0,71,0.00,,BKN110,0.00,VWS V14.01,2013-04-09 01:32:00,
2013-04-08 21:37:00,52.6,44.2,29.85,East,81,1.0,2.0,73,0.00,,BKN110,0.00,VWS V14.01,2013-04-09 01:37:00,
2013-04-08 21:42:00,52.3,44.6,29.86,ENE,69,1.0,2.0,75,0.00,,BKN110,0.00,VWS V14.01,2013-04-09 01:42:00,
2013-04-08 21:47:00,51.7,44.0,29.86,ENE,59,0.0,2.0,75,0.00,,BKN110,0.00,VWS V14.01,2013-04-09 01:47:00,
2013-04-08 21:52:00,52.0,44.3,29.86,ESE,110,0.0,2.0,75,0.00,,BKN110,0.00,VWS V14.01,2013-04-09 01:52:00,
2013-04-08 21:57:00,52.2,44.2,29.85,ESE,114,0.0,2.0,74,0.00,,BKN110,0.00,VWS V14.01,2013-04-09 01:57:00,
2013-04-08 22:02:00,52.2,44.2,29.85,ESE,116,0.0,2.0,74,0.00,,BKN110,0.00,VWS V14.01,2013-04-09 02:02:00,
2013-04-08 22:07:00,51.7,44.0,29.85,NNE,20,1.0,2.0,75,0.00,,BKN110,0.00,VWS V14.01,2013-04-09 02:07:00,
2013-04-08 22:12:00,51.7,44.0,29.85,NNE,20,1.0,2.0,75,0.00,,BKN110,0.00,VWS V14.01,2013-04-09 02:12:00,
2013-04-08 22:17:00,51.9,44.6,29.84,NNE,20,1.0,2.0,76,0.00,,BKN110,0.00,VWS V14.01,2013-04-09 02:17:00,
2013-04-08 22:23:00,52.2,44.5,29.84,West,260,1.0,2.0,75,0.00,,BKN110,0.00,VWS V14.01,2013-04-09 02:23:00,
2013-04-08 22:28:00,52.4,44.4,29.84,West,259,1.0,2.0,74,0.00,,BKN110,0.00,VWS V14.01,2013-04-09 02:28:00,
2013-04-08 22:33:00,52.7,43.9,29.84,WSW,248,2.0,2.0,72,0.00,,OVC095,0.00,VWS V14.01,2013-04-09 02:33:00,
2013-04-08 22:38:00,52.9,43.8,29.84,West,262,0.0,2.0,71,0.00,,OVC095,0.00,VWS V14.01,2013-04-09 02:38:00,
2013-04-08 22:43:00,52.6,44.2,29.84,NE,44,1.0,3.0,73,0.00,,OVC095,0.00,VWS V14.01,2013-04-09 02:43:00,
2013-04-08 22:48:00,52.9,44.8,29.83,NW,323,0.0,3.0,74,0.00,,OVC095,0.00,VWS V14.01,2013-04-09 02:48:00,
2013-04-08 22:53:00,52.9,45.2,29.83,NW,323,0.0,3.0,75,0.00,,OVC095,0.00,VWS V14.01,2013-04-09 02:53:00,
2013-04-08 22:58:00,53.2,46.2,29.83,NNW,345,0.0,3.0,77,0.00,,OVC095,0.00,VWS V14.01,2013-04-09 02:58:00,
2013-04-08 23:03:00,53.5,46.5,29.83,West,276,0.0,2.0,77,0.00,,OVC095,0.00,VWS V14.01,2013-04-09 03:03:00,
2013-04-08 23:08:00,53.5,46.1,29.83,West,262,0.0,2.0,76,0.00,,OVC095,0.00,VWS V14.01,2013-04-09 03:08:00,
2013-04-08 23:14:00,53.4,46.0,29.83,West,273,0.0,2.0,76,0.00,,OVC095,0.00,VWS V14.01,2013-04-09 03:14:00,
2013-04-08 23:19:00,53.0,46.0,29.83,WNW,284,1.0,2.0,77,0.00,,OVC095,0.00,VWS V14.01,2013-04-09 03:19:00,
2013-04-08 23:24:00,52.5,46.2,29.83,WNW,287,1.0,2.0,79,0.00,,OVC095,0.00,VWS V14.01,2013-04-09 03:24:00,
2013-04-08 23:29:00,52.5,46.5,29.83,WNW,287,0.0,2.0,80,0.00,,OVC095,0.00,VWS V14.01,2013-04-09 03:29:00,
2013-04-08 23:35:00,52.8,46.5,29.82,WNW,287,0.0,1.0,79,0.00,,BKN100,0.00,VWS V14.01,2013-04-09 03:35:00,
2013-04-08 23:40:00,52.9,47.2,29.82,WNW,300,0.0,1.0,81,0.00,,BKN100,0.00,VWS V14.01,2013-04-09 03:40:00,
2013-04-08 23:45:00,53.3,47.6,29.82,West,280,0.0,2.0,81,0.00,,BKN100,0.00,VWS V14.01,2013-04-09 03:45:00,
2013-04-08 23:50:00,53.5,47.5,29.82,West,280,0.0,2.0,80,0.00,,BKN100,0.00,VWS V14.01,2013-04-09 03:50:00,
2013-04-08 23:55:00,55.0,49.0,29.82,WSW,248,2.0,3.0,80,0.00,,BKN100,0.00,VWS V14.01,2013-04-09 03:55:00,